TimeEDT,TemperatureF,Dew PointF,Humidity,Sea Level PressureIn,VisibilityMPH,Wind Direction,Wind SpeedMPH,Gust SpeedMPH,PrecipitationIn,Events,Conditions,WindDirDegrees,DateUTC
12:53 AM,28.9,19.0,67,30.19,10.0,East,3.5,-,N/A,,Clear,90,2013-03-30 04:53:00
1:53 AM,28.0,19.0,69,30.19,10.0,Calm,Calm,-,N/A,,Clear,0,2013-03-30 05:53:00
2:53 AM,28.9,19.0,67,30.18,10.0,West,3.5,-,N/A,,Clear,280,2013-03-30 06:53:00
3:53 AM,25.0,18.0,75,30.19,10.0,Calm,Calm,-,N/A,,Clear,0,2013-03-30 07:53:00
4:53 AM,23.0,17.1,78,30.19,10.0,Calm,Calm,-,N/A,,Clear,0,2013-03-30 08:53:00
5:53 AM,21.0,16.0,81,30.19,10.0,Calm,Calm,-,N/A,,Clear,0,2013-03-30 09:53:00
6:53 AM,21.0,16.0,81,30.21,10.0,Calm,Calm,-,N/A,,Clear,0,2013-03-30 10:53:00
7:53 AM,23.0,18.0,81,30.22,10.0,Calm,Calm,-,N/A,,Clear,0,2013-03-30 11:53:00
8:53 AM,30.0,21.9,72,30.22,10.0,Calm,Calm,-,N/A,,Clear,0,2013-03-30 12:53:00
9:53 AM,37.9,23.0,55,30.21,10.0,Calm,Calm,-,N/A,,Clear,0,2013-03-30 13:53:00
10:53 AM,41.0,21.9,47,30.21,10.0,Variable,3.5,-,N/A,,Clear,0,2013-03-30 14:53:00
11:53 AM,43.0,19.9,40,30.20,10.0,NW,4.6,-,0.00,,Partly Cloudy,310,2013-03-30 15:53:00
12:53 PM,44.1,17.1,34,30.18,10.0,Variable,3.5,-,0.00,,Scattered Clouds,0,2013-03-30 16:53:00
1:53 PM,45.0,17.1,33,30.16,10.0,Variable,6.9,-,N/A,,Partly Cloudy,0,2013-03-30 17:53:00
2:53 PM,46.0,17.1,31,30.15,10.0,WNW,5.8,-,N/A,,Clear,290,2013-03-30 18:53:00
3:53 PM,48.0,16.0,28,30.13,10.0,Variable,3.5,-,N/A,,Clear,0,2013-03-30 19:53:00
4:53 PM,48.0,15.1,27,30.12,10.0,Variable,5.8,-,N/A,,Clear,0,2013-03-30 20:53:00
5:53 PM,48.0,14.0,26,30.11,10.0,WSW,5.8,-,N/A,,Clear,240,2013-03-30 21:53:00
6:53 PM,46.9,15.1,28,30.10,10.0,Calm,Calm,-,N/A,,Clear,0,2013-03-30 22:53:00
7:53 PM,45.0,15.1,30,30.11,10.0,SW,3.5,-,N/A,,Clear,220,2013-03-30 23:53:00
8:53 PM,37.0,19.0,48,30.10,10.0,Calm,Calm,-,N/A,,Clear,0,2013-03-31 00:53:00
9:53 PM,34.0,18.0,52,30.09,10.0,Calm,Calm,-,N/A,,Clear,0,2013-03-31 01:53:00
10:53 PM,33.1,16.0,50,30.08,10.0,Calm,Calm,-,N/A,,Clear,0,2013-03-31 02:53:00
11:53 PM,32.0,18.0,56,30.07,7.0,Calm,Calm,-,N/A,,Clear,0,2013-03-31 03:53:00